Location: Wingville
(42.9917°N, 90.4915°W)
Time: 13:09:16
(UTC+00:00)

LO-87 - Pass Details

Date: 26 June 2022
Orbit: 450 x 466 km, 97.4° (Epoch: 18 August)

Event Time Altitude Azimuth Distance (km) Brightness Sun altitude
Exits shadow 05:43:18 52° 328° (NNW) 577 ? -23.5°
Drops below altitude 10° 05:46:02 10° 344° (NNW) 1,612 ? -23.5°
Sets 05:48:06 0° 347° (NNW) 2,496 ? -23.5°
